Volver al catálogo

USA 401

ActivoMilitarVLEO
NORAD 61022·PAYLOAD·🇺🇸 United States

Lanzado Sep 6, 2024 desde Vandenberg Space Force Base

Loading…

Próximos Pases (próximas 24 horas)

TLE

ObsoletoSource: Mike McCants

Época: Aug 24, 2026, 23:43 UTC

1 61022U 24160B   26236.98863858 0.00000000  00000-0  00000-0 0    01
2 61022  70.0193 199.2675 0003000 219.4926 140.5073 14.96713201    02

Sigue USA 401 en tiempo real con AllMySat

Download on the App Store